Regional Weather Roundup
Issued by NWS Newport/Morehead, NC

Current Version | Previous Version | Text Only | Print | Product List | Glossary On
Versions: 1 2 3 4 5 6 7 8 9 10 11 12 13 14 15 16 17 18 19 20 21 22 23 24 25 26 27 28 29 30 31 32 33 34 35 36 37 38 39 40 41 42 43 44 45 46 47 48 49 50
000 ASUS42 KMHX 061625 RWRMHX WEATHER ROUNDUP FOR EASTERN NORTH CAROLINA NATIONAL WEATHER SERVICE NEWPORT/MOREHEAD CITY NC 1100 AM EST SAT FEB 06 2016 NOTE: "FAIR" INDICATES FEW OR NO CLOUDS BELOW 12,000 FEET WITH NO SIGNIFICANT WEATHER AND/OR OBSTRUCTIONS TO VISIBILITY NCZ015>017-031-032-045>047-102-103-061700- NORTH COAST CITY SKY/WX TMP DP RH WIND PRES REMARKS EDENTON PTSUNNY 43 30 60 CALM 30.47F ELIZABETH CITY MOSUNNY 42 29 59 NW6 30.46F KITTY HAWK MOSUNNY 45 28 51 N7 30.43F MANTEO PTSUNNY 44 31 60 N9 30.44F $$ NCZ045>047-081-094-103-104-061700- CENTRAL COAST CITY SKY/WX TMP DP RH WIND PRES REMARKS FRISCO PTSUNNY 47 32 56 NE9 30.44R SWANQUARTER N/A 45 N/A N/A N7G16 30.39F $$ NCZ095-097-098-100-101-061700- SOUTHERN COAST CITY SKY/WX TMP DP RH WIND PRES REMARKS BEAUFORT CLOUDY 44 30 57 N14G23 30.41F CEDAR ISLAND N/A 45 N/A N/A VRB9G21 30.44F JACKSONVILLE CLOUDY 43 24 47 N9 30.43S PINEY ISLAND CLOUDY N/A N/A N/A N14 30.41F WILMINGTON CLOUDY 45 27 49 NE12 30.42F $$ NCZ011>013-027>030-043-044-078>080-089-090>093-098-061700- COASTAL PLAIN CITY SKY/WX TMP DP RH WIND PRES REMARKS AHOSKIE PTSUNNY 40 26 57 CALM 30.46F CLINTON MOSUNNY 44 24 47 E6 30.44F ELIZABETHTOWN CLOUDY 45 23 41 CALM 30.41F GOLDSBORO MOSUNNY 43 21 42 NE5 30.42F GREENVILLE MOSUNNY 41 28 60 NE5 30.44F HAVELOCK CLOUDY 45 27 49 N12 30.43S KENANSVILLE N/A 43 20 40 CALM 30.44F KINSTON MOSUNNY 43 27 52 NE7 30.43F NEW BERN CLOUDY 43 27 53 NE7 30.44S RICHLANDS CLOUDY 43 21 42 NW6 30.43F ROCKY MOUNT MOSUNNY 41 25 53 N3 30.46F WASHINGTON PTSUNNY 43 29 59 CALM 30.43F WHITEVILLE MOSUNNY 45 26 47 NE8 30.41S $$ AMZ130-135-150-152-154-156-158-170-250-252-270-ANZ085-086-088-633-658-670-061700- MARINE OBSERVATIONS STATION/POSITION TIME TEMP WIND PRES WAVE SWELL AIR SEA DIR/SP/G HT/PER HT/PER (UTC) (F) (DEG/KT/KT) (MB) (FT/S) (FT/S) CHESAPEAKE LIGHT 1600 40 20/ 4/ 5 1032.2 64 E VA BEACH 1550 43 54 20/ 6/ 8 1030.9 6/ 9 5/ 9 DUCK 1600 41 45 10/ 7/ 9 1030.4 2 E DUCK 1611 45 N/A 4/10 2/11 OREGON INLET 1600 44 45 350/ 8/ 12 1030.5 13E OREGON INLT 1600 46 N/A 6/13 3/13 HATTERAS CG 1600 43 54 360/ 16/ 18 1029.9 DIAMOND BUOY 1550 48 72 10/ 17/ 23 1029.9 6/11 5/11 CAPE LOOKOUT NOT AVBL BEAUFORT LAB 1600 44 50 20/ 11/ 18 1028.7 30 SE NEW RVR IN 1608 48 64 1027.4 30 SE NEW RVR IN 1555 64 N/A 6/ 5 2/12 27 SE WRIGHTSVLE 1608 49 69 360/ 17/ 25 1028.7 5 SE WRIGHTSVLE 1508 43 54 20/ 16/ 21 1030.4 225 S CAPE HAT 1550 62 69 70/ 6/ 10 N/A 9/11 8/11 41 SE CHARLESTON 1550 53 65 30/ 21/ 27 1026.5 6/ 6 2/ 9 $$

USA.gov is the U.S. government's official web portal to all federal, state and local government web resources and services.